Miscellaneous Local Product
Issued by NWS Hastings, NE

Home | Current Version | Previous Version | Graphics & Text | Print | Product List | Glossary On
Versions: 1 2 3 4 5 6 7 8 9 10 11 12 13 14 15 16 17 18 19 20 21 22 23 24 25 26 27 28 29 30 31 32 33 34 35 36 37 38 39 40 41 42 43 44 45 46 47 48 49 50
000
AXUS43 KGID 200302
MISGRI

GID CWA HOURLY WEATHER ROUNDUP
NATIONAL WEATHER SERVICE HASTINGS NE
1000 PM CDT TUE SEP 19 2017

NOTE: "FAIR" INDICATES FEW OR NO CLOUDS BELOW 12,000 FEET WITH NO
SIGNIFICANT WEATHER AND/OR OBSTRUCTIONS TO VISIBILITY.

...SOUTH CENTRAL NEBRASKA...

CITY           SKY/WX    TMP DP  RH WIND       PRES   REMARKS
GRAND ISLAND   CLOUDY    78  68  71 S13       29.51R
HASTINGS       CLOUDY    80  60  50 S10       29.53R
KEARNEY        CLOUDY    70  53  54 S9        29.52R
ORD            CLOUDY    77  60  55 SW17G28   29.50R
YORK           CLOUDY    82  68  61 S16G25    29.54R
AURORA         CLOUDY    81  65  59 S13       29.53R
LEXINGTON      CLOUDY    70  43  37 NW18G28   29.59R
HOLDREGE       CLOUDY    72  40  30 S8        29.53R
HEBRON         MOCLDY    84  66  54 S12       29.57R

...NEBRASKA PANHANDLE...

CITY           SKY/WX    TMP DP  RH WIND       PRES   REMARKS
CHADRON        CLOUDY    58  30  34 CALM      29.77R
ALLIANCE       CLOUDY    54  32  43 W13       29.78R
SCOTTSBLUFF    PTCLDY    53  33  46 W16G24    29.78F
SIDNEY         CLOUDY    53  32  44 NW24G32   29.82R

...WESTERN AND NORTH CENTRAL NEBRASKA...

CITY           SKY/WX    TMP DP  RH WIND       PRES   REMARKS
VALENTINE      PTCLDY    66  48  52 NW17G24   29.65R
AINSWORTH      CLEAR     65  48  55 NW16G24   29.64R
ONEILL         CLOUDY    75  67  76 S8        29.48R
BROKEN BOW     CLOUDY    70  45  40 NW31G40   29.58R
IMPERIAL       CLOUDY    63  30  28 N33G41    29.71R
NORTH PLATTE   CLOUDY    65  39  38 NW18G26   29.66R
MCCOOK         CLOUDY    68  42  38 NW20G33   29.65R

...EASTERN NEBRASKA...

CITY           SKY/WX    TMP DP  RH WIND       PRES   REMARKS
NORFOLK        CLOUDY    78  68  71 SE22G29   29.49S
SO SIOUX CITY  CLOUDY    78  69  73 SE20G26   29.53F
TEKAMAH        CLOUDY    79  68  69 SE16G25   29.57R
COLUMBUS       CLOUDY    80  69  69 SE18G24   29.52R
ALBION         CLOUDY    78  69  73 SE10G16   29.50R
OMAHA EPPLEY   MOCLDY    80  68  66 SE21G31   29.61R
OFFUTT AFB     PTCLDY    80  68  67 SE18      29.60R
MILLARD        CLOUDY    82  70  66 SE22G28   29.60R
LINCOLN        CLOUDY    82  69  64 S22G31    29.57R
NEBRASKA CITY  CLOUDY    79  70  73 S17G26    29.64R
BEATRICE       CLOUDY    82  72  71 S18G24    29.59R
FALLS CITY     CLEAR     79  68  69 SE16G26   29.65R

...NORTHERN KANSAS...

CITY           SKY/WX    TMP DP  RH WIND       PRES   REMARKS
GOODLAND       CLOUDY    64  40  41 N23G31    29.71R
HILL CITY      PTCLDY    79  35  20 S10       29.56R
NORTON         CLEAR     75  27  16 S9        29.54R
PHILLIPSBURG   CLEAR     81  32  17 S8        29.53R
SMITH CENTER   CLEAR     79  55  44 SE13      29.55R
HAYS           CLOUDY    82  56  40 S16       29.57R
RUSSELL        CLOUDY    86  62  44 S21G31    29.56R
CONCORDIA      MOCLDY    83  67  58 S16       29.58R
SALINA         CLOUDY    88  67  49 S23G30    29.59R HX  91
TOPEKA         CLEAR     80  72  76 S18G29    29.68R



USA.gov is the U.S. government's official web portal to all federal, state and local government web resources and services.